sat.trackr.live / text

‹ back to catalog

STARLINK-36105

NORAD 66850 · 2025-281C

PAYLOAD ACTIVE UNKNOWN

§ Identity

Operator
Country
US
Launch date
2025-12-02
Launch site
AFETR
Launch vehicle
Mass (kg)
RCS (m²)

Purposes: comms

External: N2YO · Heavens-Above · Gunter

§ Orbital elements

Epoch: 2026-09-20T14:32:03.029568Z

Period
94.27 min
Inclination
43.0013°
Eccentricity
0.0001204
Mean motion
15.27589258 rev/d
Perigee alt
482.2 km
Apogee alt
483.8 km
Semi-major
6,861.2 km
B*
3.3196e-4
RAAN
322.8464°
Arg perigee
279.8582°
Mean anomaly
80.2134°
Rev number
4,599

§ Raw data

STARLINK-361051 66850U 25281C   26263.60559062  .00008886  00000+0  33196-3 0  99992 66850  43.0013 322.8464 0001204 279.8582  80.2134 15.27589258 45992

JSON: /api/v1/satellites/66850 · /tle

For live sub-satellite position, see the globe view (requires WebGL).

§ Visibility from observer

Set your observer location to see the next 7 days of passes ≥ 10°. The values pass through the URL so the page stays shareable.

No JS? Fill the form by hand. The geolocation button needs JavaScript.